N760SF KFCY-KLIT

Flight info

Callsign N760SF
Flight time 0h 46m
Altitude 6000
Route BILLI T398 QITXO LIT
Aircraft BE36/L-BDFGLORY/S

Departure

Time 2026-05-08 05:22
Airport Forrest City Municipal Airport (KFCY)

Arrival

Time 2026-05-08 06:08
Airport Bill & Hillary Clinton National Airport/Adams Field (KLIT)
Time Latitude Longitude Altitude Speed Heading
2026-05-08 05:13 34.94294 -90.77406 250 ft 0 kts 266°
2026-05-08 05:16 34.94294 -90.77407 250 ft 1 kts 263°
2026-05-08 05:16 34.94266 -90.77418 250 ft 6 kts 193°
2026-05-08 05:16 34.94205 -90.77444 250 ft 14 kts 223°
2026-05-08 05:17 34.94174 -90.77454 250 ft 10 kts 142°
2026-05-08 05:17 34.94131 -90.77482 251 ft 2 kts 256°
2026-05-08 05:17 34.94066 -90.77498 252 ft 16 kts 179°
2026-05-08 05:17 34.93941 -90.77505 255 ft 20 kts 180°
2026-05-08 05:18 34.93795 -90.77509 251 ft 19 kts 137°
2026-05-08 05:18 34.93855 -90.77502 253 ft 4 kts 352°
2026-05-08 05:18 34.93857 -90.77502 253 ft 0 kts 356°
2026-05-08 05:21 34.94081 -90.77500 252 ft 79 kts 359°
2026-05-08 05:22 34.94774 -90.77539 538 ft 109 kts 355°
2026-05-08 05:22 34.95541 -90.77425 1080 ft 111 kts
2026-05-08 05:22 34.96238 -90.77692 1335 ft 125 kts 295°
2026-05-08 05:22 34.95991 -90.78551 1796 ft 125 kts 202°
2026-05-08 05:23 34.95142 -90.78231 2245 ft 133 kts 150°
2026-05-08 05:23 34.94301 -90.77812 2691 ft 129 kts 179°
2026-05-08 05:23 34.93376 -90.77780 3087 ft 133 kts 183°
2026-05-08 05:23 34.92483 -90.77677 3539 ft 127 kts 176°
2026-05-08 05:24 34.91618 -90.77485 3804 ft 126 kts 174°
2026-05-08 05:24 34.90744 -90.77460 4098 ft 125 kts 189°
2026-05-08 05:24 34.89869 -90.77518 4431 ft 126 kts 186°
2026-05-08 05:24 34.89024 -90.77519 4867 ft 120 kts 176°
2026-05-08 05:25 34.88206 -90.77347 5262 ft 118 kts 175°
2026-05-08 05:25 34.87410 -90.77119 5638 ft 121 kts 152°
2026-05-08 05:25 34.86863 -90.76325 6008 ft 125 kts 116°
2026-05-08 05:25 34.86955 -90.75324 6354 ft 124 kts 46°
2026-05-08 05:26 34.87756 -90.74916 6434 ft 141 kts 359°
2026-05-08 05:26 34.88816 -90.74847 6407 ft 161 kts 359°
2026-05-08 05:26 34.89958 -90.74797 6400 ft 170 kts 353°
2026-05-08 05:26 34.91000 -90.75386 6400 ft 168 kts 310°
2026-05-08 05:27 34.91418 -90.76682 6400 ft 168 kts 275°
2026-05-08 05:27 34.91474 -90.78114 6398 ft 170 kts 272°
2026-05-08 05:27 34.91515 -90.79560 6399 ft 171 kts 272°
2026-05-08 05:27 34.91553 -90.81014 6397 ft 172 kts 271°
2026-05-08 05:28 34.91590 -90.82471 6397 ft 172 kts 271°
2026-05-08 05:28 34.91628 -90.83928 6398 ft 172 kts 271°
2026-05-08 05:28 34.91667 -90.85389 6397 ft 173 kts 272°
2026-05-08 05:28 34.91705 -90.86852 6397 ft 173 kts 272°
2026-05-08 05:29 34.91745 -90.88315 6397 ft 173 kts 272°
2026-05-08 05:29 34.91785 -90.89778 6397 ft 173 kts 272°
2026-05-08 05:29 34.91826 -90.91238 6397 ft 173 kts 272°
2026-05-08 05:29 34.91866 -90.92702 6397 ft 173 kts 272°
2026-05-08 05:30 34.91907 -90.94162 6397 ft 173 kts 272°
2026-05-08 05:30 34.91948 -90.95624 6397 ft 173 kts 272°
2026-05-08 05:30 34.91991 -90.97084 6397 ft 173 kts 272°
2026-05-08 05:30 34.92034 -90.98547 6397 ft 173 kts 272°
2026-05-08 05:31 34.91842 -90.99970 6392 ft 174 kts 242°
2026-05-08 05:31 34.90925 -91.00921 6389 ft 178 kts 208°
2026-05-08 05:31 34.89791 -91.01527 6394 ft 178 kts 206°
2026-05-08 05:31 34.88651 -91.02117 6394 ft 178 kts 206°
2026-05-08 05:32 34.87507 -91.02705 6395 ft 178 kts 206°
2026-05-08 05:32 34.86365 -91.03291 6396 ft 178 kts 206°
2026-05-08 05:32 34.85220 -91.03878 6396 ft 179 kts 206°
2026-05-08 05:32 34.84130 -91.04574 6394 ft 176 kts 220°
2026-05-08 05:33 34.83322 -91.05671 6392 ft 174 kts 240°
2026-05-08 05:33 34.82769 -91.06977 6392 ft 174 kts 246°
2026-05-08 05:33 34.82266 -91.08311 6392 ft 174 kts 246°
2026-05-08 05:33 34.81757 -91.09639 6392 ft 174 kts 246°
2026-05-08 05:34 34.81241 -91.10972 6391 ft 174 kts 246°
2026-05-08 05:34 34.80723 -91.12299 6393 ft 174 kts 246°
2026-05-08 05:34 34.80207 -91.13627 6393 ft 174 kts 246°
2026-05-08 05:34 34.79690 -91.14952 6394 ft 174 kts 246°
2026-05-08 05:35 34.79174 -91.16278 6391 ft 174 kts 246°
2026-05-08 05:35 34.78656 -91.17605 6391 ft 174 kts 246°
2026-05-08 05:35 34.78138 -91.18933 6391 ft 174 kts 246°
2026-05-08 05:35 34.77621 -91.20261 6392 ft 174 kts 246°
2026-05-08 05:36 34.77103 -91.21588 6391 ft 174 kts 246°
2026-05-08 05:36 34.76585 -91.22913 6392 ft 174 kts 246°
2026-05-08 05:36 34.76067 -91.24241 6391 ft 174 kts 246°
2026-05-08 05:36 34.75549 -91.25567 6390 ft 174 kts 246°
2026-05-08 05:37 34.75030 -91.26893 6390 ft 174 kts 246°
2026-05-08 05:37 34.74512 -91.28219 6390 ft 174 kts 246°
2026-05-08 05:37 34.73993 -91.29544 6391 ft 173 kts 246°
2026-05-08 05:37 34.73476 -91.30868 6391 ft 173 kts 246°
2026-05-08 05:38 34.72958 -91.32189 6390 ft 173 kts 246°
2026-05-08 05:38 34.72440 -91.33512 6391 ft 173 kts 246°
2026-05-08 05:38 34.71922 -91.34835 6391 ft 174 kts 246°
2026-05-08 05:38 34.71403 -91.36159 6391 ft 174 kts 246°
2026-05-08 05:39 34.70883 -91.37485 6390 ft 174 kts 246°
2026-05-08 05:39 34.70363 -91.38808 6390 ft 174 kts 246°
2026-05-08 05:39 34.69845 -91.40133 6390 ft 174 kts 246°
2026-05-08 05:39 34.69325 -91.41459 6390 ft 174 kts 246°
2026-05-08 05:40 34.68807 -91.42781 6391 ft 174 kts 246°
2026-05-08 05:40 34.68462 -91.43657 6391 ft 174 kts 246°
2026-05-08 05:40 34.67941 -91.44983 6393 ft 174 kts 246°
2026-05-08 05:40 34.67420 -91.46308 6392 ft 174 kts 246°
2026-05-08 05:41 34.66899 -91.47632 6392 ft 174 kts 246°
2026-05-08 05:41 34.66379 -91.48954 6390 ft 174 kts 246°
2026-05-08 05:41 34.65858 -91.50277 6391 ft 174 kts 246°
2026-05-08 05:41 34.65336 -91.51601 6392 ft 174 kts 246°
2026-05-08 05:42 34.64816 -91.52924 6393 ft 174 kts 246°
2026-05-08 05:42 34.64294 -91.54248 6391 ft 174 kts 246°
2026-05-08 05:42 34.63840 -91.55598 6388 ft 173 kts 259°
2026-05-08 05:42 34.63839 -91.57049 6391 ft 172 kts 275°
2026-05-08 05:43 34.63941 -91.58499 6394 ft 172 kts 274°
2026-05-08 05:43 34.64037 -91.59949 6396 ft 173 kts 274°
2026-05-08 05:43 34.64133 -91.61402 6397 ft 173 kts 274°
2026-05-08 05:43 34.64229 -91.62855 6397 ft 173 kts 274°
2026-05-08 05:44 34.64326 -91.64308 6397 ft 173 kts 274°
2026-05-08 05:44 34.64422 -91.65764 6398 ft 173 kts 274°
2026-05-08 05:44 34.64518 -91.67216 6398 ft 173 kts 274°
2026-05-08 05:44 34.64615 -91.68672 6398 ft 173 kts 274°
2026-05-08 05:45 34.64710 -91.70126 6398 ft 173 kts 274°
2026-05-08 05:45 34.64806 -91.71582 6398 ft 173 kts 274°
2026-05-08 05:45 34.64902 -91.73034 6398 ft 173 kts 274°
2026-05-08 05:45 34.64996 -91.74489 6398 ft 173 kts 274°
2026-05-08 05:46 34.65092 -91.75947 6398 ft 173 kts 274°
2026-05-08 05:46 34.65187 -91.77401 6398 ft 173 kts 274°
2026-05-08 05:46 34.65281 -91.78857 6398 ft 173 kts 274°
2026-05-08 05:46 34.65376 -91.80312 6398 ft 173 kts 274°
2026-05-08 05:47 34.65471 -91.81767 6398 ft 173 kts 274°
2026-05-08 05:47 34.65565 -91.83223 6398 ft 173 kts 274°
2026-05-08 05:47 34.65659 -91.84675 6398 ft 173 kts 274°
2026-05-08 05:47 34.65753 -91.86133 6398 ft 173 kts 274°
2026-05-08 05:48 34.65846 -91.87587 6398 ft 173 kts 274°
2026-05-08 05:48 34.65940 -91.89042 6398 ft 173 kts 274°
2026-05-08 05:48 34.66033 -91.90497 6398 ft 173 kts 274°
2026-05-08 05:48 34.66126 -91.91952 6398 ft 173 kts 274°
2026-05-08 05:49 34.66219 -91.93405 6398 ft 173 kts 274°
2026-05-08 05:49 34.66461 -91.94831 6397 ft 173 kts 286°
2026-05-08 05:49 34.66804 -91.96229 6397 ft 173 kts 285°
2026-05-08 05:49 34.67136 -91.97634 6398 ft 173 kts 285°
2026-05-08 05:50 34.67465 -91.99040 6398 ft 173 kts 285°
2026-05-08 05:50 34.67795 -92.00447 6398 ft 173 kts 285°
2026-05-08 05:50 34.68051 -92.01873 6397 ft 173 kts 275°
2026-05-08 05:50 34.68040 -92.03328 6396 ft 173 kts 268°
2026-05-08 05:51 34.68122 -92.04775 6394 ft 173 kts 288°
2026-05-08 05:51 34.68704 -92.06052 6392 ft 174 kts 308°
2026-05-08 05:51 34.69769 -92.06742 6388 ft 181 kts 349°
2026-05-08 05:51 34.71033 -92.06785 6394 ft 182 kts 357°
2026-05-08 05:52 34.72300 -92.06771 6397 ft 182 kts 357°
2026-05-08 05:52 34.73555 -92.06753 6396 ft 183 kts 358°
2026-05-08 05:52 34.74842 -92.06711 6395 ft 183 kts
2026-05-08 05:52 34.75966 -92.05985 6388 ft 190 kts 46°
2026-05-08 05:53 34.76536 -92.04537 6388 ft 192 kts 72°
2026-05-08 05:53 34.76906 -92.02974 6392 ft 192 kts 73°
2026-05-08 05:53 34.77076 -92.01373 6391 ft 193 kts 92°
2026-05-08 05:53 34.76986 -91.99744 6393 ft 193 kts 94°
2026-05-08 05:54 34.76887 -91.98118 6382 ft 194 kts 94°
2026-05-08 05:54 34.76786 -91.96479 6342 ft 195 kts 95°
2026-05-08 05:54 34.76685 -91.94864 6275 ft 183 kts 95°
2026-05-08 05:54 34.76592 -91.93369 6257 ft 173 kts 94°
2026-05-08 05:55 34.76922 -91.92096 6045 ft 157 kts 351°
2026-05-08 05:55 34.77878 -91.91929 6564 ft 91 kts
2026-05-08 05:55 34.78674 -91.91786 6094 ft 143 kts
2026-05-08 05:55 34.79711 -91.91746 5822 ft 154 kts 355°
2026-05-08 05:56 34.80691 -91.91892 6102 ft 141 kts 343°
2026-05-08 05:56 34.81676 -91.92449 5476 ft 167 kts 310°
2026-05-08 05:56 34.82105 -91.93629 5234 ft 148 kts 274°
2026-05-08 05:56 34.82026 -91.94903 4586 ft 163 kts 265°
2026-05-08 05:57 34.81915 -91.96129 4445 ft 126 kts 263°
2026-05-08 05:57 34.81817 -91.97155 4272 ft 126 kts 263°
2026-05-08 05:57 34.81757 -91.98153 3990 ft 122 kts 267°
2026-05-08 05:57 34.81740 -91.99199 3743 ft 121 kts 284°
2026-05-08 05:58 34.82230 -92.00010 3698 ft 120 kts 328°
2026-05-08 05:58 34.83058 -91.99945 3700 ft 131 kts 30°
2026-05-08 05:58 34.83488 -91.98976 3700 ft 137 kts 88°
2026-05-08 05:58 34.83425 -91.97813 3710 ft 138 kts 94°
2026-05-08 05:59 34.83501 -91.96659 3708 ft 138 kts 62°
2026-05-08 05:59 34.84226 -91.96016 3700 ft 130 kts
2026-05-08 05:59 34.84993 -91.96401 3700 ft 121 kts 303°
2026-05-08 05:59 34.85064 -91.97357 3704 ft 119 kts 248°
2026-05-08 06:00 34.84667 -91.98247 3718 ft 120 kts 244°
2026-05-08 06:00 34.84270 -91.99140 3717 ft 120 kts 243°
2026-05-08 06:00 34.83869 -92.00037 3715 ft 118 kts 244°
2026-05-08 06:00 34.83488 -92.00905 3712 ft 114 kts 249°
2026-05-08 06:01 34.83503 -92.01834 3702 ft 111 kts 279°
2026-05-08 06:01 34.83626 -92.02756 3699 ft 110 kts 278°
2026-05-08 06:01 34.83747 -92.03668 3699 ft 109 kts 278°
2026-05-08 06:01 34.83869 -92.04580 3700 ft 109 kts 278°
2026-05-08 06:02 34.83732 -92.05444 3700 ft 109 kts 232°
2026-05-08 06:02 34.83217 -92.06125 3698 ft 109 kts 244°
2026-05-08 06:02 34.83276 -92.06987 3705 ft 107 kts 294°
2026-05-08 06:02 34.83576 -92.07818 3711 ft 108 kts 291°
2026-05-08 06:03 34.83870 -92.08646 3712 ft 108 kts 291°
2026-05-08 06:03 34.84171 -92.09498 3714 ft 108 kts 291°
2026-05-08 06:03 34.84248 -92.10389 3528 ft 122 kts 242°
2026-05-08 06:03 34.83594 -92.11152 3097 ft 139 kts 234°
2026-05-08 06:04 34.82924 -92.11955 2926 ft 134 kts 223°
2026-05-08 06:04 34.82154 -92.12620 2757 ft 132 kts 217°
2026-05-08 06:04 34.81404 -92.13210 2582 ft 126 kts 216°
2026-05-08 06:04 34.80672 -92.13769 2403 ft 123 kts 216°
2026-05-08 06:05 34.79948 -92.14315 2226 ft 122 kts 216°
2026-05-08 06:05 34.79228 -92.14853 2052 ft 121 kts 215°
2026-05-08 06:05 34.78517 -92.15393 1878 ft 119 kts 220°
2026-05-08 06:05 34.78131 -92.16238 1686 ft 116 kts 246°
2026-05-08 06:06 34.77645 -92.17042 1511 ft 117 kts 230°
2026-05-08 06:06 34.77052 -92.17727 1341 ft 118 kts 225°
2026-05-08 06:06 34.76433 -92.18381 1169 ft 118 kts 224°
2026-05-08 06:06 34.75862 -92.19061 1009 ft 105 kts 234°
2026-05-08 06:07 34.75428 -92.19692 836 ft 95 kts 232°
2026-05-08 06:07 34.74992 -92.20296 665 ft 95 kts 231°
2026-05-08 06:07 34.74553 -92.20895 499 ft 95 kts 231°
2026-05-08 06:07 34.74098 -92.21479 351 ft 97 kts 225°
2026-05-08 06:08 34.73586 -92.22091 260 ft 106 kts 230°
2026-05-08 06:08 34.73260 -92.22498 262 ft 29 kts 225°
2026-05-08 06:08 34.73171 -92.22611 260 ft 20 kts 225°
2026-05-08 06:08 34.73130 -92.22761 260 ft 8 kts 259°
2026-05-08 06:09 34.73130 -92.22765 260 ft 0 kts 259°
2026-05-08 06:09 34.73128 -92.22775 260 ft 6 kts 259°
2026-05-08 06:09 34.73113 -92.22874 261 ft 18 kts 259°
2026-05-08 06:09 34.73095 -92.23046 261 ft 22 kts 274°
2026-05-08 06:10 34.73098 -92.23248 261 ft 27 kts 268°
2026-05-08 06:10 34.73094 -92.23469 261 ft 25 kts 269°
2026-05-08 06:10 34.73107 -92.23673 261 ft 24 kts 267°
2026-05-08 06:10 34.73105 -92.23791 263 ft 0 kts 272°
2026-05-08 06:11 34.73116 -92.23964 262 ft 27 kts 304°
2026-05-08 06:11 34.73209 -92.24099 261 ft 0 kts 299°